Weather in Yantai

China     37°30′28″N   121°18′33″E
temp.,
°C
wind,
m/s
gust,
m/s
humid.,
%
clouds,
%
prec.,
mm/h
press.,
hPa
HPBL,
m
13 april, tue
tue1323:00+7nnw5109396 0.0 1017413
02:00+7n81286100 0.1 1019717
05:00+6nnw812675 0.0 1021738
08:00+7n811490 0.0 10231058
11:00+7n810340 0.0 10231256
14:00+7nnw79325 0.0 10231123
17:00+7nw462824 0.0 1022675
20:00+6w243292 0.0 1023171
14 april, wed
wed1423:00+6ssw34340 0.0 102277
02:00+5ssw48360 0.0 1021160
05:00+5sw410410 0.0 1020212
08:00+10sw512390 0.0 1020327
11:00+16wnw69290 0.0 10201312
14:00+16nw58280 0.0 10181538
17:00+16wnw25291 0.0 1017630
20:00+12se22420 0.0 101743
15 april, thu
thu1523:00+12ssw51344100 0.0 1017337
02:00+11ssw61445100 0.0 1016381
05:00+11ssw6144961 0.0 1015377
08:00+13ssw613350 0.0 1015549
11:00+17s7112297 0.0 10131285
14:00+17s101427100 0.0 10111228
17:00+13s9155098 0.0 1009804
20:00+12ssw8206651 0.1 1008809
16 april, fri
fri1623:00+12w916400 0.0 1011875
02:00+11wnw815370 0.0 1012788
05:00+9w614380 0.0 1013553
08:00+12wnw611260 0.0 1014968
11:00+16wsw46170 0.0 10131337
14:00+19sw811181 0.0 10102168
17:00+16s81430100 0.0 10071154
20:00+13w5113795 0.0 10111270
17 april, sat
sat1723:00+10wnw613584 0.0 1014646
02:00+9w7145226 0.0 1013519
05:00+8wnw8154413 0.0 1016754
08:00+10nnw711430 0.0 10191166
11:00+12nw811290 0.0 10211452
14:00+12nw912250 0.0 10211594
17:00+13wnw711230 0.0 10201527
20:00+10wsw512250 0.0 1022358